Hourly Weather Luhivka

Today, 7 May, Friday

Time Temperature Precipitation Wind Pressure Humidity
00:00 +9°C° 0 mm 1 mps 746 mmHg 93%
01:00 +8°C° 0 mm 1 mps 746 mmHg 94%
02:00 +7°C° 0 mm 2 mps 746 mmHg 94%
03:00 +8°C° 0 mm 1 mps 746 mmHg 94%
04:00 +8°C° 0 mm 1 mps 747 mmHg 94%
05:00 +8°C° 0 mm 1 mps 747 mmHg 93%
06:00 +9°C° 0 mm 1 mps 747 mmHg 87%
07:00 +11°C° 0 mm 1 mps 748 mmHg 80%
08:00 +12°C° 0 mm 1 mps 748 mmHg 73%
09:00 +14°C° 0 mm 2 mps 748 mmHg 65%
10:00 +15°C° 0 mm 2 mps 748 mmHg 57%
11:00 +16°C° 0 mm 2 mps 748 mmHg 49%
12:00 +16°C° 0 mm 3 mps 748 mmHg 47%
13:00 +17°C° 0 mm 3 mps 748 mmHg 46%
14:00 +17°C° 0 mm 3 mps 748 mmHg 44%
15:00 +17°C° 0 mm 3 mps 748 mmHg 47%
16:00 +17°C° 0 mm 3 mps 747 mmHg 50%
17:00 +17°C° 0 mm 3 mps 747 mmHg 53%
18:00 +16°C° 0 mm 3 mps 747 mmHg 56%
19:00 +13°C° 0 mm 4 mps 747 mmHg 59%
20:00 +12°C° 0 mm 4 mps 746 mmHg 63%
21:00 +12°C° 0 mm 5 mps 746 mmHg 61%
22:00 +11°C° 0 mm 6 mps 745 mmHg 58%
23:00 +12°C° 0 mm 7 mps 745 mmHg 56%

Tomorrow, 8 May, Saturday

Time Temperature Precipitation Wind Pressure Humidity
00:00 +11°C° 0.2 mm 7 mps 745 mmHg 63%
01:00 +11°C° 0.2 mm 7 mps 744 mmHg 71%
02:00 +10°C° 0.2 mm 7 mps 744 mmHg 78%
03:00 +10°C° 0.1 mm 7 mps 743 mmHg 82%
04:00 +10°C° 0.1 mm 7 mps 743 mmHg 86%
05:00 +11°C° 0.1 mm 7 mps 743 mmHg 89%
06:00 +11°C° 0.8 mm 7 mps 742 mmHg 89%
07:00 +11°C° 0.8 mm 8 mps 742 mmHg 89%
08:00 +11°C° 0.8 mm 8 mps 742 mmHg 89%
09:00 +11°C° 1 mm 7 mps 742 mmHg 91%
10:00 +11°C° 1 mm 6 mps 742 mmHg 93%
11:00 +11°C° 1 mm 6 mps 742 mmHg 94%
12:00 +11°C° 0.6 mm 6 mps 743 mmHg 91%
13:00 +11°C° 0.6 mm 6 mps 743 mmHg 88%
14:00 +11°C° 0.6 mm 6 mps 744 mmHg 84%
15:00 +10°C° 0 mm 6 mps 744 mmHg 83%
16:00 +10°C° 0 mm 5 mps 745 mmHg 81%
17:00 +9°C° 0 mm 5 mps 745 mmHg 79%
18:00 +8°C° 0 mm 5 mps 745 mmHg 78%
19:00 +8°C° 0 mm 5 mps 746 mmHg 77%
20:00 +7°C° 0 mm 5 mps 746 mmHg 76%
21:00 +6°C° 0 mm 5 mps 747 mmHg 79%
22:00 +5°C° 0 mm 5 mps 747 mmHg 82%
23:00 +5°C° 0 mm 5 mps 748 mmHg 85%

Day after tomorrow, 9 May, Sunday

Time Temperature Precipitation Wind Pressure Humidity
00:00 +3°C° 0 mm 5 mps 748 mmHg 86%
01:00 +3°C° 0 mm 5 mps 748 mmHg 87%
02:00 +3°C° 0 mm 5 mps 749 mmHg 88%
03:00 +2°C° 0 mm 5 mps 749 mmHg 84%
04:00 +2°C° 0 mm 5 mps 750 mmHg 81%
05:00 +2°C° 0 mm 5 mps 750 mmHg 78%
06:00 +3°C° 0 mm 6 mps 751 mmHg 73%
07:00 +5°C° 0 mm 6 mps 751 mmHg 68%
08:00 +7°C° 0 mm 6 mps 752 mmHg 63%
09:00 +8°C° 0 mm 6 mps 752 mmHg 59%
10:00 +9°C° 0 mm 7 mps 752 mmHg 55%
11:00 +10°C° 0 mm 7 mps 752 mmHg 51%
12:00 +11°C° 0 mm 7 mps 752 mmHg 49%
13:00 +11°C° 0 mm 7 mps 752 mmHg 47%
14:00 +12°C° 0 mm 7 mps 753 mmHg 45%
15:00 +11°C° 0 mm 7 mps 753 mmHg 48%
16:00 +11°C° 0 mm 6 mps 753 mmHg 52%
17:00 +11°C° 0 mm 6 mps 754 mmHg 55%
18:00 +9°C° 0 mm 5 mps 754 mmHg 61%
19:00 +7°C° 0 mm 4 mps 755 mmHg 66%
20:00 +7°C° 0 mm 3 mps 755 mmHg 72%
21:00 +5°C° 0 mm 3 mps 756 mmHg 73%
22:00 +5°C° 0 mm 3 mps 756 mmHg 75%
23:00 +4°C° 0 mm 3 mps 756 mmHg 76%

10 May, Monday

Time Temperature Precipitation Wind Pressure Humidity
00:00 +4°C° 0 mm 3 mps 757 mmHg 77%
01:00 +3°C° 0 mm 3 mps 757 mmHg 78%
02:00 +3°C° 0 mm 3 mps 757 mmHg 79%
03:00 +3°C° 0 mm 3 mps 757 mmHg 79%
04:00 +3°C° 0 mm 3 mps 758 mmHg 79%
05:00 +3°C° 0 mm 3 mps 758 mmHg 79%
06:00 +5°C° 0 mm 4 mps 758 mmHg 72%
07:00 +7°C° 0 mm 5 mps 758 mmHg 64%
08:00 +9°C° 0 mm 6 mps 758 mmHg 56%
09:00 +10°C° 0 mm 7 mps 758 mmHg 53%
10:00 +11°C° 0 mm 7 mps 757 mmHg 49%
11:00 +12°C° 0 mm 8 mps 757 mmHg 46%
12:00 +13°C° 0 mm 8 mps 757 mmHg 46%
13:00 +13°C° 0 mm 8 mps 757 mmHg 46%
14:00 +15°C° 0 mm 8 mps 756 mmHg 45%
15:00 +14°C° 0 mm 7 mps 756 mmHg 50%
16:00 +14°C° 0 mm 7 mps 756 mmHg 54%
17:00 +13°C° 0 mm 6 mps 756 mmHg 58%
18:00 +13°C° 0 mm 6 mps 756 mmHg 58%
19:00 +11°C° 0 mm 6 mps 756 mmHg 58%
20:00 +11°C° 0 mm 6 mps 756 mmHg 58%
21:00 +10°C° 0 mm 6 mps 756 mmHg 60%
22:00 +10°C° 0 mm 6 mps 756 mmHg 61%
23:00 +10°C° 0 mm 6 mps 756 mmHg 63%

11 May, Tuesday

Time Temperature Precipitation Wind Pressure Humidity
00:00 +9°C° 0 mm 5 mps 755 mmHg 65%
01:00 +9°C° 0 mm 5 mps 755 mmHg 68%
02:00 +8°C° 0 mm 5 mps 755 mmHg 70%
03:00 +8°C° 0 mm 5 mps 755 mmHg 72%
04:00 +8°C° 0 mm 5 mps 755 mmHg 74%
05:00 +7°C° 0 mm 5 mps 755 mmHg 76%
06:00 +9°C° 0 mm 6 mps 755 mmHg 73%
07:00 +10°C° 0 mm 6 mps 755 mmHg 71%
08:00 +12°C° 0 mm 7 mps 755 mmHg 68%
09:00 +14°C° 0 mm 7 mps 754 mmHg 67%
10:00 +16°C° 0 mm 7 mps 754 mmHg 65%
11:00 +17°C° 0 mm 7 mps 754 mmHg 64%
12:00 +17°C° 0.1 mm 7 mps 754 mmHg 67%
13:00 +17°C° 0.1 mm 7 mps 753 mmHg 69%
14:00 +17°C° 0.1 mm 8 mps 753 mmHg 72%
15:00 +16°C° 0.1 mm 7 mps 753 mmHg 74%
16:00 +16°C° 0.1 mm 6 mps 753 mmHg 76%
17:00 +15°C° 0.1 mm 5 mps 754 mmHg 78%
18:00 +14°C° 0 mm 4 mps 754 mmHg 81%
19:00 +13°C° 0 mm 3 mps 753 mmHg 84%
20:00 +12°C° 0 mm 3 mps 753 mmHg 87%
21:00 +13°C° 0.2 mm 2 mps 753 mmHg 88%
22:00 +12°C° 0.2 mm 2 mps 753 mmHg 89%
23:00 +12°C° 0.2 mm 1 mps 752 mmHg 90%

12 May, Wednesday

Time Temperature Precipitation Wind Pressure Humidity
00:00 +12°C° 0.6 mm 1 mps 752 mmHg 92%
01:00 +10°C° 0.6 mm 2 mps 752 mmHg 94%
02:00 +10°C° 0.6 mm 2 mps 752 mmHg 95%
03:00 +10°C° 0.3 mm 2 mps 752 mmHg 94%
04:00 +9°C° 0.3 mm 2 mps 752 mmHg 93%
05:00 +9°C° 0.3 mm 2 mps 752 mmHg 92%
06:00 +10°C° 0 mm 3 mps 752 mmHg 87%
07:00 +10°C° 0 mm 3 mps 752 mmHg 81%
08:00 +11°C° 0 mm 3 mps 752 mmHg 76%
09:00 +12°C° 0 mm 3 mps 752 mmHg 71%
10:00 +13°C° 0 mm 3 mps 752 mmHg 65%
11:00 +16°C° 0 mm 3 mps 752 mmHg 59%
12:00 +16°C° 0 mm 3 mps 752 mmHg 61%
13:00 +14°C° 0 mm 3 mps 751 mmHg 63%
14:00 +14°C° 0 mm 3 mps 751 mmHg 65%
15:00 +14°C° 0 mm 3 mps 751 mmHg 66%
16:00 +14°C° 0 mm 3 mps 751 mmHg 67%
17:00 +14°C° 0 mm 3 mps 751 mmHg 68%
18:00 +14°C° 0 mm 3 mps 751 mmHg 70%
19:00 +14°C° 0 mm 2 mps 750 mmHg 73%
20:00 +14°C° 0 mm 2 mps 750 mmHg 75%
21:00 +13°C° 0.1 mm 2 mps 750 mmHg 78%
22:00 +13°C° 0.1 mm 2 mps 749 mmHg 81%
23:00 +12°C° 0.1 mm 2 mps 749 mmHg 84%
Show more

We Need Your Consent

Meteoprog and our Service Providers may store and access personal data such as cookies, device identifiers or other similar technologies on your device and process such data to personalise content and ads, as well as provide social media features and to analyse the traffic.

  • Store and/or access information on your device

    Cookies, device identifiers or other information can be stored or accessed on your device for the purposes indicated above.

  • Personalised ads and content, ad and content measurement, audience insights, and products development

    Ads and content can be personalised based on a profile. More data can be added to better personalise ads and content. Ad and content performance can be measured. Insights about the audience who saw the ads and content can be derived. Such data can be used to develop or improve user’s experience, systems and software.

By clicking ‘I Agree’ you will allow the use of indicated cookies, device identifiers, web beacons or other similar technologies. Your settings can be changed in the browser on your device.

For certain purposes, legitimate interests may be relied on, rather than consent. You can read more about this in our Privacy and Cookie Policy.